Torna al catalogo

CZ-6A DEB

AttivoSSO
NORAD 54587·DEBRIS·🇨🇳 China

Lanciato Nov 11, 2022 da Taiyuan Satellite Launch Center

Loading…

Prossimi Passaggi (prossime 24 ore)

TLE

AggiornatoSource: Space-Track

Epoca: Sep 13, 2026, 21:40 UTC

1 54587U 22151MP  26256.90319826  .00000478  00000-0  34937-3 0  9997
2 54587  98.8863 224.2736 0116203 186.3897 173.5791 13.97527457195024

Traccia CZ-6A DEB in tempo reale con AllMySat

Download on the App Store